EW7200 Weather Reports


Display with metric or nautical units.
time (UTC)temp
F
wind
direction
speed
MPH
gust
MPH
rain 1hr
in
rain 24hr
in
rain mn
in
humidity
%
barometer
mb
20260906090004 72 21 0.0 0.0 0.00 0.01 0.00 89 1010.2
20260906084507 72 21 0.0 1.0 0.00 0.01 0.00 89 1010.2
20260906083003 72 21 0.0 0.0 0.00 0.01 0.00 89 1010.2
20260906081502 72 21 0.0 1.0 0.00 0.01 0.00 88 1010.2
20260906080000 72 21 0.0 1.0 0.00 0.01 0.00 88 1009.9
20260906074559 73 21 0.0 0.0 0.00 0.01 0.00 88 1010.0
20260906073058 73 21 0.0 1.0 0.00 0.01 0.00 88 1009.9
20260906071658 73 21 0.0 1.0 0.00 0.01 0.00 88 1010.1
20260906070057 73 21 0.0 0.0 0.00 0.01 0.00 87 1010.1
20260906064556 73 21 0.0 1.0 0.00 0.01 0.00 87 1010.1
20260906063053 73 19 0.0 2.0 0.00 0.01 0.00 88 1010.4
20260906061553 73 5 0.0 2.0 0.00 0.01 0.00 88 1010.5
20260906060107 74 360 0.0 2.0 0.00 0.01 0.00 88 1010.6
20260906054553 74 42 0.0 2.0 0.00 0.01 0.00 88 1010.7
20260906053046 74 55 0.0 0.0 0.00 0.01 0.00 88 1010.7
20260906051545 74 55 0.0 0.0 0.00 0.01 0.00 88 1010.8
20260906050043 74 55 0.0 0.0 0.00 0.01 0.00 88 1011.0
20260906044540 74 55 0.0 0.0 0.00 0.01 0.00 88 1011.0
20260906043036 74 55 0.0 0.0 0.00 0.01 0.00 87 1011.0
20260906041535 74 55 0.0 0.0 0.00 0.01 0.00 87 1011.0
20260906040029 75 55 0.0 0.0 0.00 0.01 0.01 87 1011.0
20260906034549 75 55 0.0 0.0 0.00 0.01 0.01 87 1011.2
20260906033032 75 55 0.0 0.0 0.00 0.01 0.01 87 1011.2
20260906031531 75 355 0.0 1.0 0.00 0.01 0.01 86 1011.7
20260906030028 75 355 0.0 1.0 0.00 0.01 0.01 86 1011.9
20260906024527 76 355 0.0 2.0 0.00 0.01 0.01 86 1012.0
20260906023029 76 304 0.0 2.0 0.00 0.01 0.01 85 1012.0
20260906021532 76 312 0.0 2.0 0.00 0.01 0.01 84 1012.5
20260906020026 76 236 0.0 1.0 0.00 0.01 0.01 83 1012.2
20260906014525 76 165 0.0 2.0 0.00 0.01 0.01 81 1011.7
20260906013025 77 113 0.0 0.0 0.00 0.01 0.01 80 1011.1
20260906011524 77 113 0.0 1.0 0.00 0.01 0.01 80 1010.5
20260906010024 77 33 0.0 2.0 0.00 0.01 0.01 79 1010.1
20260906004523 78 42 0.0 2.0 0.00 0.01 0.01 78 1010.1
20260906003023 78 100 1.0 5.0 0.00 0.01 0.01 77 1010.0
20260906001540 78 121 1.0 4.0 0.00 0.01 0.01 75 1010.3
20260906000022 79 54 1.0 4.0 0.00 0.01 0.01 74 1010.3
20260905234520 79 107 2.0 10.0 0.00 0.01 0.01 73 1010.4
20260905233023 79 84 3.0 12.0 0.01 0.01 0.01 73 1010.7
20260905231523 80 42 2.0 4.0 0.01 0.01 0.01 78 1011.0
20260905230022 82 129 0.0 2.0 0.01 0.01 0.01 74 1010.5
20260905224522 85 84 0.0 4.0 0.01 0.01 0.01 66 1010.4
20260905223033 87 319 2.0 8.0 0.00 0.00 0.00 59 1011.0
20260905221521 91 333 4.0 17.0 0.00 0.00 0.00 57 1010.7
20260905220016 96 348 0.0 2.0 0.00 0.00 0.00 50 1009.4
20260905214515 97 326 0.0 2.0 0.00 0.00 0.00 47 1009.2
20260905213015 97 184 0.0 2.0 0.00 0.00 0.00 44 1009.0
20260905211513 98 174 1.0 3.0 0.00 0.00 0.00 44 1008.9
20260905210012 97 167 2.0 3.0 0.00 0.00 0.00 44 1009.2
20260905204510 96 355 1.0 4.0 0.00 0.00 0.00 47 1009.1
20260905203012 96 188 0.0 4.0 0.00 0.00 0.00 48 1009.1
20260905201517 97 182 0.0 6.0 0.00 0.00 0.00 46 1009.2
20260905200008 98 310 1.0 4.0 0.00 0.00 0.00 45 1009.4
20260905194507 99 198 2.0 7.0 0.00 0.00 0.00 45 1009.5
20260905193015 101 150 2.0 4.0 0.00 0.00 0.00 44 1009.7
20260905191504 101 289 1.0 4.0 0.00 0.00 0.00 44 1009.9
20260905190002 101 180 1.0 3.0 0.00 0.00 0.00 48 1010.1
20260905184608 101 188 1.0 7.0 0.00 0.00 0.00 47 1010.5
20260905183056 101 121 2.0 5.0 0.00 0.00 0.00 48 1010.8
20260905181553 100 63 1.0 4.0 0.00 0.00 0.00 48 1011.0
20260905180050 99 318 2.0 6.0 0.00 0.00 0.00 48 1011.1
20260905174546 98 74 1.0 5.0 0.00 0.00 0.00 48 1011.5
20260905173050 98 5 1.0 5.0 0.00 0.00 0.00 53 1011.7
20260905171543 99 208 2.0 4.0 0.00 0.00 0.00 49 1011.8
20260905170039 98 173 1.0 3.0 0.00 0.00 0.00 56 1012.1
20260905164536 96 65 1.0 5.0 0.00 0.00 0.00 56 1012.4
20260905163031 96 331 0.0 3.0 0.00 0.00 0.00 58 1012.7
20260905161527 95 338 1.0 3.0 0.00 0.00 0.00 59 1012.8
20260905160023 94 123 0.0 2.0 0.00 0.00 0.00 63 1013.0
20260905154519 93 221 1.0 5.0 0.00 0.00 0.00 65 1013.0
20260905153025 91 147 0.0 4.0 0.00 0.00 0.00 67 1013.2
20260905151512 91 315 2.0 5.0 0.00 0.00 0.00 69 1013.3
20260905150012 90 203 0.0 5.0 0.00 0.00 0.00 71 1013.4
20260905144502 89 242 0.0 3.0 0.00 0.00 0.00 71 1013.7
20260905143059 88 302 0.0 3.0 0.00 0.00 0.00 75 1013.8
20260905141554 86 30 0.0 3.0 0.00 0.00 0.00 77 1013.9
20260905140050 84 346 0.0 3.0 0.00 0.00 0.00 81 1014.1
20260905134544 81 340 0.0 7.0 0.00 0.00 0.00 86 1014.2
20260905133040 79 244 0.0 4.0 0.00 0.00 0.00 91 1014.1
20260905131550 78 282 1.0 2.0 0.00 0.00 0.00 93 1014.2
20260905130032 77 214 0.0 2.0 0.00 0.00 0.00 93 1014.3
20260905124528 76 182 0.0 2.0 0.00 0.00 0.00 93 1014.3
20260905123053 75 338 0.0 1.0 0.00 0.00 0.00 92 1014.1
20260905121524 75 338 0.0 2.0 0.00 0.00 0.00 92 1014.0
20260905120027 75 338 0.0 1.0 0.00 0.00 0.00 92 1013.7
20260905114521 75 338 0.0 2.0 0.00 0.00 0.00 92 1013.6
20260905113019 75 355 0.0 1.0 0.00 0.00 0.00 92 1013.6
20260905111513 74 355 0.0 1.0 0.00 0.00 0.00 91 1013.4
20260905110013 74 355 0.0 1.0 0.00 0.00 0.00 91 1013.3
20260905104512 74 355 0.0 1.0 0.00 0.00 0.00 91 1013.3
20260905103012 74 355 0.0 0.0 0.00 0.00 0.00 91 1013.0
20260905101511 74 355 0.0 1.0 0.00 0.00 0.00 91 1013.0
20260905100011 75 355 0.0 0.0 0.00 0.00 0.00 90 1012.9
20260905094508 75 355 0.0 1.0 0.00 0.00 0.00 90 1012.9
20260905093007 75 355 0.0 0.0 0.00 0.00 0.00 90 1012.9
20260905091506 75 355 0.0 1.0 0.00 0.00 0.00 90 1012.6